Date String (YYYY-MM-DD hh:mm:ss) UTC,Instrument flags,absolute air pressure of the measurement (hPa),sample flow rate (lpm),inlet stack bypass flow (lpm),air temperature of the measurement (°C),ambient temperature measured by the external sensor (°C),aerosol sample conditioner tube jacket temperature (°C),OPC LED temperature (°C),internal box temperature (°C),relative humidity of the measurement (%),span deviation,mass concentration of particles derived from Lorenz-Mie calculation of OPC scattering (μg/m³),mass concentration of particles derived from Lorenz-Mie calculation of OPC scattering (μg/m³),mass concentration of particles derived from Lorenz-Mie calculation of OPC scattering (μg/m³)
DateTimeUTC,F1_M11,P_M11,Q1_M11,Q2_M11,T1_M11,T2_M11,T3_M11,T4_M11,T5_M11,U1_M11,ZSPAN_M11,X0_M11,X2_M11,X1_M11
2023-09-08 09:00:00,SystemResetWarning,0836.2,5.01,000.00,028.1,024.8,000.0,036.7,029.3,16.1,0000.0,0011.72,0003.10,0001.85
2023-09-08 09:01:00,SystemResetWarning,0836.2,5.00,000.00,028.1,025.2,000.0,036.7,029.3,16.1,0000.0,0011.14,0003.10,0001.86
2023-09-08 09:02:00,SystemResetWarning,0836.2,5.00,000.00,028.1,025.5,000.0,036.6,029.4,16.2,0000.0,0011.40,0003.13,0001.88
2023-09-08 09:03:00,SystemResetWarning,0836.2,5.00,000.00,028.0,025.8,000.0,036.6,029.4,16.2,0000.0,0011.70,0003.14,0001.88
2023-09-08 09:04:00,SystemResetWarning,0836.2,5.01,000.00,028.0,026.0,000.0,036.6,029.5,16.2,0000.0,0012.01,0003.11,0001.89
2023-09-08 09:05:00,SystemResetWarning,0836.3,5.00,000.00,028.1,026.2,000.0,036.6,029.5,16.2,0000.0,0012.05,0003.13,0001.90
2023-09-08 09:06:00,SystemResetWarning,0836.2,5.00,000.00,028.1,026.3,000.0,036.6,029.5,16.2,0000.0,0011.89,0003.14,0001.91
2023-09-08 09:07:00,SystemResetWarning,0836.2,5.00,000.00,028.1,026.5,000.0,036.6,029.6,16.3,0000.0,0010.88,0003.15,0001.92
2023-09-08 09:08:00,SystemResetWarning,0836.3,5.00,000.00,028.1,026.6,000.0,036.6,029.6,16.4,0000.0,0010.43,0003.14,0001.94
2023-09-08 09:09:00,SystemResetWarning,0836.2,5.00,000.00,028.1,026.7,000.0,036.6,029.6,16.4,0000.0,0010.37,0003.14,0001.95
2023-09-08 09:10:00,SystemResetWarning,0836.3,5.00,000.00,028.1,026.7,000.0,036.6,029.7,16.4,0000.0,0009.34,0003.13,0001.94
2023-09-08 09:11:00,SystemResetWarning,0836.3,5.01,000.00,028.2,026.8,000.0,036.6,029.7,16.4,0000.0,0008.62,0003.15,0001.96
2023-09-08 09:12:00,SystemResetWarning,0836.2,5.00,000.00,028.2,026.9,000.0,036.6,029.8,16.4,0000.0,0008.62,0003.17,0001.98
2023-09-08 09:13:00,SystemResetWarning,0836.2,5.00,000.00,028.2,026.9,000.0,036.6,029.7,16.5,0000.0,0008.34,0003.15,0001.98
2023-09-08 09:14:00,SystemResetWarning,0836.3,5.00,000.00,028.2,026.9,000.0,036.6,029.8,16.5,0000.0,0008.29,0003.18,0001.98
2023-09-08 09:15:00,SystemResetWarning,0836.2,5.00,000.00,028.2,027.0,000.0,036.6,029.8,16.5,0000.0,0007.91,0003.22,0001.98
2023-09-08 09:16:00,SystemResetWarning,0836.2,5.00,000.00,028.3,027.0,000.0,036.6,029.8,16.6,0000.0,0007.78,0003.21,0001.99
2023-09-08 09:17:00,SystemResetWarning,0836.2,5.00,000.00,028.3,027.0,000.0,036.6,029.8,16.5,0000.0,0008.15,0003.24,0002.01
2023-09-08 09:18:00,SystemResetWarning,0836.2,5.00,000.00,028.3,027.0,000.0,036.7,029.8,16.6,0000.0,0008.46,0003.29,0002.00
2023-09-08 09:19:00,SystemResetWarning,0836.2,5.00,000.00,028.3,027.1,000.0,036.7,029.9,16.7,0000.0,0008.64,0003.33,0002.01
2023-09-08 09:20:00,SystemResetWarning,0836.2,5.00,000.00,028.3,027.1,000.0,036.7,029.9,16.7,0000.0,0008.76,0003.32,0002.03
2023-09-08 09:21:00,SystemResetWarning,0836.2,5.00,000.00,028.3,027.1,000.0,036.7,029.9,16.7,0000.0,0008.84,0003.33,0002.04
2023-09-08 09:22:00,SystemResetWarning,0836.2,5.00,000.00,028.4,027.1,000.0,036.7,029.9,16.8,0000.0,0008.66,0003.31,0002.03
2023-09-08 09:23:00,SystemResetWarning,0836.2,5.00,000.00,028.4,027.2,000.0,036.7,030.0,16.7,0000.0,0008.40,0003.30,0002.03
2023-09-08 09:24:00,SystemResetWarning,0836.2,5.00,000.00,028.4,027.2,000.0,036.7,029.9,16.7,0000.0,0008.24,0003.28,0002.04
2023-09-08 09:25:00,SystemResetWarning,0836.2,5.00,000.00,028.4,027.2,000.0,036.7,029.9,16.7,0000.0,0008.27,0003.22,0002.03
2023-09-08 09:26:00,SystemResetWarning,0836.2,5.00,000.00,028.4,027.2,000.0,036.8,029.9,16.7,0000.0,0008.32,0003.19,0002.01
2023-09-08 09:27:00,SystemResetWarning,0836.2,5.00,000.00,028.4,027.2,000.0,036.8,030.0,16.6,0000.0,0008.26,0003.18,0001.98
2023-09-08 09:28:00,SystemResetWarning,0836.2,5.01,000.00,028.5,027.2,000.0,036.8,030.0,16.7,0000.0,0007.87,0003.14,0001.97
2023-09-08 09:29:00,SystemResetWarning,0836.2,5.01,000.00,028.5,027.2,000.0,036.8,030.0,16.7,0000.0,0007.22,0003.04,0001.96
2023-09-08 09:30:00,SystemResetWarning,0836.2,5.00,000.00,028.5,027.3,000.0,036.8,030.1,16.6,0000.0,0006.63,0002.95,0001.94
2023-09-08 09:31:00,SystemResetWarning,0836.2,5.00,000.00,028.5,027.3,000.0,036.8,030.1,16.6,0000.0,0006.11,0002.95,0001.91
2023-09-08 09:32:00,SystemResetWarning,0836.2,5.00,000.00,028.5,027.3,000.0,036.8,030.1,16.6,0000.0,0006.35,0003.06,0001.90
2023-09-08 09:33:00,SystemResetWarning,0836.2,5.00,000.00,028.5,027.3,000.0,036.8,030.1,16.6,0000.0,0006.69,0003.08,0001.89
2023-09-08 09:34:00,SystemResetWarning,0836.2,5.00,000.00,028.6,027.3,000.0,036.8,030.1,16.7,0000.0,0007.11,0003.12,0001.88
2023-09-08 09:35:00,SystemResetWarning,0836.2,5.00,000.00,028.6,027.4,000.0,036.9,030.1,16.7,0000.0,0007.56,0003.13,0001.88
2023-09-08 09:36:00,SystemResetWarning,0836.2,4.99,000.00,028.6,027.4,000.0,036.9,030.1,16.7,0000.0,0007.94,0003.16,0001.92
2023-09-08 09:37:00,SystemResetWarning,0836.2,5.00,000.00,028.6,027.4,000.0,036.9,030.2,16.7,0000.0,0007.74,0003.18,0001.95
2023-09-08 09:38:00,SystemResetWarning,0836.2,5.01,000.00,028.6,027.4,000.0,036.9,030.2,16.7,0000.0,0007.70,0003.17,0001.99
2023-09-08 09:39:00,SystemResetWarning,0836.2,5.01,000.00,028.6,027.4,000.0,036.9,030.2,16.7,0000.0,0007.82,0003.21,0001.99
2023-09-08 09:40:00,SystemResetWarning,0836.2,5.00,000.00,028.6,027.4,000.0,036.9,030.2,16.7,0000.0,0008.27,0003.27,0002.01
2023-09-08 09:41:00,SystemResetWarning,0836.2,5.00,000.00,028.7,026.9,000.0,036.9,030.1,16.7,0000.0,0008.49,0003.31,0002.04
2023-09-08 09:42:00,SystemResetWarning,0836.2,4.99,000.00,028.6,025.0,000.0,036.8,029.7,16.7,0000.0,0008.81,0003.34,0002.06
2023-09-08 09:43:00,SystemResetWarning,0836.2,5.03,000.00,028.4,024.3,000.0,036.8,029.5,16.9,0000.0,0008.55,0003.28,0002.08
2023-09-08 09:44:00,SystemResetWarning,0836.2,5.00,000.00,028.2,024.4,000.0,036.7,029.2,17.1,0000.0,0008.59,0003.25,0002.11
2023-09-08 09:45:00,SystemResetWarning,0836.2,5.00,000.00,028.1,024.7,000.0,036.7,029.2,17.2,0000.0,0008.90,0003.22,0002.12
2023-09-08 09:46:00,SystemResetWarning,0836.2,5.00,000.00,028.1,025.0,000.0,036.7,029.3,17.3,0000.0,0009.24,0003.21,0002.12
2023-09-08 09:47:00,SystemResetWarning,0836.2,5.00,000.00,028.1,025.4,000.0,036.7,029.4,17.3,0000.0,0009.14,0003.23,0002.12
2023-09-08 09:48:00,SystemResetWarning,0836.2,5.00,000.00,028.1,025.7,000.0,036.6,029.4,17.4,0000.0,0009.28,0003.22,0002.12
2023-09-08 09:49:00,SystemResetWarning,0836.2,5.00,000.00,028.1,025.9,000.0,036.6,029.5,17.4,0000.0,0009.46,0003.20,0002.12
2023-09-08 09:50:00,SystemResetWarning,0836.2,5.01,000.00,028.1,026.1,000.0,036.6,029.5,17.4,0000.0,0009.55,0003.16,0002.13
2023-09-08 09:51:00,SystemResetWarning,0836.2,5.00,000.00,028.1,026.3,000.0,036.6,029.5,17.4,0000.0,0009.61,0003.17,0002.15
2023-09-08 09:52:00,SystemResetWarning,0836.2,4.99,000.00,028.1,026.4,000.0,036.6,029.6,17.4,0000.0,0010.06,0003.20,0002.18
2023-09-08 09:53:00,SystemResetWarning,0836.2,5.00,000.00,028.1,026.5,000.0,036.6,029.6,17.4,0000.0,0011.18,0003.25,0002.23
2023-09-08 09:54:00,SystemResetWarning,0836.2,5.00,000.00,028.1,026.6,000.0,036.6,029.6,17.4,0000.0,0011.31,0003.29,0002.26
2023-09-08 09:55:00,SystemResetWarning,0836.2,5.00,000.00,028.1,026.7,000.0,036.6,029.7,17.4,0000.0,0011.33,0003.33,0002.27
2023-09-08 09:56:00,SystemResetWarning,0836.2,5.00,000.00,028.2,026.8,000.0,036.6,029.7,17.3,0000.0,0011.13,0003.33,0002.29
2023-09-08 09:57:00,SystemResetWarning,0836.2,5.00,000.00,028.2,026.8,000.0,036.6,029.8,17.3,0000.0,0010.55,0003.35,0002.33
2023-09-08 09:58:00,SystemResetWarning,0836.2,5.00,000.00,028.2,026.8,000.0,036.6,029.8,17.2,0000.0,0010.32,0003.37,0002.39
2023-09-08 09:59:00,SystemResetWarning,0836.2,5.00,000.00,028.2,026.9,000.0,036.6,029.8,17.1,0000.0,0010.20,0003.40,0002.43
